Regional Weather Roundup
Issued by NWS

Home | Current Version | Previous Version | Text Only | Print | Product List | Glossary Off
Versions: 1 2 3 4 5 6 7 8 9 10 11 12 13 14 15 16 17 18 19 20 21 22 23 24 25 26 27 28 29 30 31 32 33 34 35 36 37 38 39 40 41 42 43 44 45 46 47 48 49 50

380
ASUS45 KPSR 240410
RWRAZ

ARIZONA HOURLY REGIONAL WEATHER ROUNDUP
NATIONAL WEATHER SERVICE PHOENIX AZ
900 PM MST THU MAR 23 2017

NOTE: FAIR INDICATES FEW OR NO CLOUDS BELOW 12,000 FEET WITH NO
SIGNIFICANT WEATHER AND/OR OBSTRUCTIONS TO VISIBILITY.

AZZ001>003-036-240500-
NORTHWEST ARIZONA

CITY           SKY/WX    TMP DP  RH WIND       PRES   REMARKS
BULLHEAD CITY  CLEAR     64  36  34 SE6       30.00R
KINGMAN        CLEAR     47  31  53 S8        30.07R
$$

AZZ004>008-015-016-018-240500-
NORTH CENTRAL ARIZONA

CITY           SKY/WX    TMP DP  RH WIND       PRES   REMARKS
GRAND CANYON   PTCLDY    35  33  92 VRB3      30.08R
WILLIAMS       CLOUDY    36  32  87 W8G15     30.10R WCI  29
PRESCOTT       PTCLDY    46  31  55 W14       30.09R
FLAGSTAFF      MOCLDY    33  30  88 W9        30.06R WCI  25
PAYSON         MOCLDY    37  36  93 E5        30.11R WCI  34
PAGE           MOCLDY    51  32  48 NW14G28   29.93R
$$

AZZ009>014-017-240500-
NORTHEAST ARIZONA

CITY           SKY/WX    TMP DP  RH WIND       PRES   REMARKS
WINSLOW        MOCLDY    45  34  65 SW16G24   30.00R
SAINT JOHNS    MOCLDY    38  32  79 SW17G28   29.99R WCI  28
WINDOW ROCK    LGT SNOW  35  31  85 SW6       29.93R FOG     WCI  30
SHOW LOW       MOCLDY    32  28  86 S14       30.07R WCI  22
$$

AZZ023-240500-
GREATER PHOENIX AREA

CITY           SKY/WX    TMP DP  RH WIND       PRES   REMARKS
PHOENIX        CLEAR     66  33  29 W6        30.02R
BUCKEYE        CLEAR     57  37  47 W3        30.05R
LUKE AFB       CLEAR     62  37  39 SW8       30.02R
DEER VALLEY    CLEAR     60  36  40 CALM      30.03R
SCOTTSDALE     CLEAR     59  37  44 CALM      30.05R
MESA-GATEWAY   PTCLDY    61  36  39 VRB5      30.05R
CHANDLER       CLEAR     61  36  39 SW12      30.04R
$$

AZZ027-028-240500-
SOUTHWEST MARICOPA COUNTY AND PINAL COUNTY

CITY           SKY/WX    TMP DP  RH WIND       PRES   REMARKS
CASA GRANDE    NOT AVBL
GILA BEND      CLEAR     63  30  29 SW9       30.05R
$$

AZZ503-504-507>509-240500-
SOUTHEAST ARIZONA

CITY           SKY/WX    TMP DP  RH WIND       PRES   REMARKS
TUCSON         CLEAR     59  19  21 W7        30.11R
DAVIS-MONTHAN  CLEAR     58  20  22 W9        30.10R
NOGALES        CLEAR     46  19  34 E3        30.13R
SIERRA VISTA   CLEAR     44  18  34 W6        30.14R
DOUGLAS        CLEAR     48  24  39 NW13      30.11R
SAFFORD        CLOUDY    52  33  48 NW10      30.05R
$$

AZZ020-021-025-026-031-240500-
SOUTHWEST ARIZONA

CITY           SKY/WX    TMP DP  RH WIND       PRES   REMARKS
YUMA           CLEAR     64  41  42 W9        30.06R
$$

CAZ031-033-041-043-047-048-061-240500-
SOUTHERN CALIFORNIA

CITY           SKY/WX    TMP DP  RH WIND       PRES   REMARKS
DOWNTOWN L.A.  CLEAR     59  51  75 CALM      30.18R
L.A. AIRPORT   CLEAR     57  52  83 SW12      30.19R
SAN DIEGO      PTCLDY    59  45  59 NW6       30.23R
BURBANK        CLEAR     58  47  66 SE6       30.18R
ONTARIO        PTCLDY    55  39  54 SW9       30.19R
RIVERSIDE      CLEAR     54  42  64 W6        30.19R
PALM SPRINGS   CLEAR     68  39  34 NW13G25   30.07R
EL CENTRO NAS  CLEAR     64  38  38 W14       30.09R
IMPERIAL       CLEAR     62  43  49 W13       30.07R
BLYTHE         CLEAR     69  37  30 SW14      30.03R
NEEDLES        CLEAR     71  26  18 W10       30.00R
$$

NVZ020-UTZ003-240500-
SOUTHERN NEVADA-UTAH

CITY           SKY/WX    TMP DP  RH WIND       PRES   REMARKS
LAS VEGAS      PTCLDY    64  30  27 E7        30.01R
SALT LAKE CITY PTCLDY    39  35  86 CALM      30.03R
$$

NMZ009-TXZ055-240500-
NEW MEXICO-WEST TEXAS

CITY           SKY/WX    TMP DP  RH WIND       PRES   REMARKS
ALBUQUERQUE    MOCLDY    43  29  57 W18       29.89R
EL PASO        CLEAR     56  20  24 NW26G38   30.00R
$$


........................KEY........................
SKY/WX - SKY CONDITION/WEATHER
TMP    - TEMPERATURE IN FAHRENHEIT
DP     - DEW POINT IN FAHRENHEIT
RH     - RELATIVE HUMIDITY IN PERCENT
WIND   - DIRECTION AND SPEED IN MILES PER HOUR (MPH)
VRB    - VARIABLE WIND DIRECTION
PRES   - MEAN SEA LEVEL PRESSURE IN INCHES OF MERCURY
         F - FALLING PRESSURE   R - RISING PRESSURE
         S - STEADY PRESSURE
VSB    - VISIBILITY IN MILES
HX     - HEAT INDEX IN FAHRENHEIT
WCI    - WIND CHILL INDEX IN FAHRENHEIT
TC     - TEMPERATURE IN CELSIUS WHICH IS ALSO KNOWN AS
         TEMPERATURE IN CENTIGRADE
AFB    - AIR FORCE BASE
         LUKE AFB IS LUKE AIR FORCE BASE
         DAVIS-MONTHAN IS DAVIS-MONTHAN AIR FORCE BASE
NAS    - NAVAL AIR STATION
         EL CENTRO NAS IS EL CENTRO NAVAL AIR STATION
N/A    - NOT AVAILABLE





USA.gov is the U.S. government's official web portal to all federal, state and local government web resources and services.